TimeEDT,TemperatureF,Dew PointF,Humidity,Sea Level PressureIn,VisibilityMPH,Wind Direction,Wind SpeedMPH,Gust SpeedMPH,PrecipitationIn,Events,Conditions,WindDirDegrees,DateUTC
12:51 AM,26.1,10.9,53,29.94,10.0,NW,17.3,21.9,N/A,,Mostly Cloudy,320,2013-03-15 04:51:00
1:51 AM,24.1,10.0,55,29.96,10.0,NNW,11.5,-,N/A,,Scattered Clouds,330,2013-03-15 05:51:00
2:51 AM,24.1,8.1,51,29.96,10.0,NW,15.0,-,N/A,,Scattered Clouds,320,2013-03-15 06:51:00
3:51 AM,21.9,8.1,55,29.96,10.0,NW,9.2,-,N/A,,Partly Cloudy,310,2013-03-15 07:51:00
4:51 AM,21.0,8.1,57,29.96,10.0,WNW,4.6,-,N/A,,Partly Cloudy,300,2013-03-15 08:51:00
5:51 AM,19.0,8.1,62,29.95,10.0,WNW,4.6,-,N/A,,Partly Cloudy,290,2013-03-15 09:51:00
6:51 AM,19.0,8.1,62,29.94,10.0,WNW,3.5,-,N/A,,Mostly Cloudy,290,2013-03-15 10:51:00
7:51 AM,21.0,10.0,63,29.93,10.0,Calm,Calm,-,N/A,,Scattered Clouds,0,2013-03-15 11:51:00
8:51 AM,23.0,8.1,53,29.91,10.0,Calm,Calm,-,N/A,,Scattered Clouds,0,2013-03-15 12:51:00
9:51 AM,26.1,10.0,51,29.89,10.0,South,3.5,-,N/A,,Mostly Cloudy,190,2013-03-15 13:51:00
10:51 AM,30.0,12.0,47,29.84,10.0,SSE,5.8,-,N/A,,Mostly Cloudy,160,2013-03-15 14:51:00
11:51 AM,30.9,12.0,46,29.81,10.0,SSE,6.9,-,N/A,,Overcast,160,2013-03-15 15:51:00
12:51 PM,34.0,12.9,42,29.76,10.0,South,10.4,-,0.00,Snow,Light Snow,190,2013-03-15 16:51:00
1:51 PM,34.0,18.0,52,29.73,5.0,South,6.9,17.3,0.00,Snow,Light Snow,170,2013-03-15 17:51:00
2:51 PM,35.1,24.1,64,29.70,8.0,SSW,4.6,-,0.00,Snow,Light Snow,210,2013-03-15 18:51:00
3:22 PM,35.6,26.6,70,29.68,2.0,South,8.1,-,0.00,Snow,Light Snow,190,2013-03-15 19:22:00
3:33 PM,35.6,26.6,70,29.68,3.0,SW,9.2,-,0.00,Snow,Light Snow,220,2013-03-15 19:33:00
3:51 PM,35.1,26.1,70,29.68,5.0,South,9.2,-,0.00,Snow,Light Snow,190,2013-03-15 19:51:00
4:51 PM,37.0,24.1,59,29.67,10.0,West,8.1,-,0.00,Snow,Light Snow,260,2013-03-15 20:51:00
5:51 PM,37.0,27.0,67,29.67,10.0,WSW,11.5,-,0.00,Snow,Light Snow,240,2013-03-15 21:51:00
6:51 PM,36.0,26.1,67,29.67,10.0,WSW,8.1,-,0.00,Snow,Light Snow,240,2013-03-15 22:51:00
7:08 PM,35.6,26.6,70,29.67,0.5,West,17.3,23.0,0.00,Snow,Light Snow,270,2013-03-15 23:08:00
7:11 PM,35.6,28.4,75,29.67,2.0,West,15.0,23.0,0.00,Snow,Light Snow,280,2013-03-15 23:11:00
7:17 PM,35.6,28.4,75,29.67,4.0,West,16.1,24.2,0.00,Snow,Light Snow,270,2013-03-15 23:17:00
7:51 PM,36.0,26.1,67,29.69,10.0,WNW,15.0,23.0,0.00,,Mostly Cloudy,290,2013-03-15 23:51:00
8:35 PM,33.8,28.4,81,29.70,1.0,West,16.1,-,0.00,Snow,Light Snow,280,2013-03-16 00:35:00
8:38 PM,33.8,28.4,81,29.70,0.5,West,24.2,33.4,0.00,Snow,Light Snow,280,2013-03-16 00:38:00
8:44 PM,33.8,30.2,87,29.70,1.0,West,16.1,33.4,0.00,Snow,Light Snow,270,2013-03-16 00:44:00
8:51 PM,33.1,30.0,89,29.71,5.0,West,13.8,-,0.00,Snow,Light Snow,270,2013-03-16 00:51:00
9:05 PM,33.8,28.4,81,29.70,10.0,West,11.5,-,0.01,,Mostly Cloudy,280,2013-03-16 01:05:00
9:51 PM,34.0,25.0,70,29.73,10.0,WNW,13.8,19.6,0.01,,Partly Cloudy,290,2013-03-16 01:51:00
10:51 PM,33.1,23.0,66,29.75,10.0,WNW,10.4,-,N/A,,Clear,290,2013-03-16 02:51:00
11:51 PM,32.0,21.0,64,29.77,10.0,WNW,16.1,24.2,N/A,,Partly Cloudy,290,2013-03-16 03:51:00